Regional Weather Roundup
Issued by NWS Austin/San Antonio, TX

Home | Current Version | Previous Version | Text Only | Print | Product List | Glossary On
Versions: 1 2 3 4 5 6 7 8 9 10 11 12 13 14 15 16 17 18 19 20 21 22 23 24 25 26 27 28 29 30 31 32 33 34 35 36 37 38 39 40 41 42 43 44 45 46 47 48 49 50
000
ASUS44 KEWX 262002
RWREWX
SOUTH TEXAS REGIONAL WEATHER ROUNDUP
NATIONAL WEATHER SERVICE AUSTIN/SAN ANTONIO TX
300 PM CDT FRI MAY 26 2017

NOTE: "FAIR" INDICATED FEW OR NO CLOUDS BELOW 12,000 FEET WITH NO
SIGNIFICANT WEATHER AND/OR OBSTRUCTIONS TO VISIBILITY.

* - THESE STATIONS ARE NOT NWS OR FAA STATIONS...AND ARE NOT SUBJECT
    TO NWS AND FAA QUALITY CONTROL.

TXZ171-172-183>190-262100-
TEXAS HILL COUNTRY AND EDWARDS PLATEAU

CITY           SKY/WX    TMP DP  RH WIND       PRES   REMARKS
JUNCTION       SUNNY     95  67  39 S8        29.85F HX  99
*LLANO         MOSUNNY   91  73  55 S7        29.88S HX 100
BURNET         NOT AVBL
*HORSESHOE BAY NOT AVBL
*KERRVILLE     PTSUNNY   83  74  75 S12       29.90F HX  90
*FREDERICKSBRG CLOUDY    81  70  69 S13       29.90F
*ROCKSPRINGS   SUNNY     88  72  58 S7        29.93F HX  94
*BOERNE STAGE  CLOUDY    82  70  65 S6        29.90F
*CASTROVILLE   CLOUDY    88  71  57 SE6       29.87F HX  93
HONDO          CLOUDY    88  75  65 VRB6      29.86F HX  97
*UVALDE        PTSUNNY   87  73  64 CALM      29.86F HX  94
DEL RIO        SUNNY     91  72  53 VRB6      29.82F HX  98
LAUGHLIN AFB   NOT AVBL
CARRIZO SPRGS  PTSUNNY   90  72  55 SE3       29.81F HX  96
*EAGLE PASS    NOT AVBL
$$

TXZ173-191>194-202-209-217>225-228-262100-
CENTRAL AND SOUTH CENTRAL TEXAS

CITY           SKY/WX    TMP DP  RH WIND       PRES   REMARKS
GEORGETOWN     NOT AVBL
AUSTIN/BERGSTM PTSUNNY   90  74  59 S10       29.85F HX  99
AUSTIN/MABRY   CLOUDY    86  74  67 S7        29.87F HX  94
*AUSTIN/EXEC   FAIR      86  75  70 S10       29.86F HX  95
*LAGO VISTA    CLOUDY    81  74  79 S12G20    29.89F
SAN MARCOS     PTSUNNY   88  73  62 SW9G16    29.87F HX  96
NEW BRAUNFELS  CLOUDY    90  73  57 S9        29.84F HX  98
RANDOLPH AFB   CLOUDY    88  73  60 S7        29.85F HX  95
PT SAN ANTONIO PTSUNNY   87  73  61 S3        29.84F HX  94
SAN ANTONIO    CLOUDY    86  72  62 S12       29.87F HX  92
STINSON FIELD  CLOUDY    89  72  56 SW10      29.83F HX  96
*LA GRANGE     CLOUDY    92  76  59 S13       29.84S HX 103
*GIDDINGS      PTSUNNY   89  72  56 S9        29.86F HX  97
*GONZALES      PTSUNNY   91  77  61 S13       29.84S HX 104
$$

TXZ163>164-176>182-195>201-210>213-226-227-235-262100-
SOUTHEAST TEXAS

CITY           SKY/WX    TMP DP  RH WIND       PRES   REMARKS
COLLEGE STN    PTSUNNY   90  74  59 S15G22    29.85F HX  99
*BRYAN         CLOUDY    89  73  59 S12G18    29.87F HX  96
*CALDWELL      NOT AVBL
*CROCKETT      PTSUNNY   86  73  66 S15G23    29.89F HX  93
*BRENHAM       PTSUNNY   91  74  57 S17G24    29.86F HX  99
HUNTSVILLE     PTSUNNY   89  71  55 S13G21    29.86F HX  95
CONROE         PTSUNNY   90  72  55 S14       29.87F HX  97
HOUSTON BUSH   PTSUNNY   89  73  59 S16G22    29.88F HX  97
HOUSTON HOBBY  PTSUNNY   86  74  67 S15       29.88F HX  94
*HOUSTON SW AP CLOUDY    86  74  68 S10G17    29.90F HX  94
PEARLAND       CLOUDY    87  74  64 S13       29.92S HX  95
HOUSTON HOOKS  CLOUDY    89  73  59 S12       29.87F HX  97
ELLINGTON FLD  PTSUNNY   90  77  66 S14       29.93R HX 102
SUGAR LAND     PTSUNNY   88  75  65 S15G22    29.88F HX  97
*HOUSTON EXEC  CLOUDY    88  75  66 S15G22    29.89S HAZE    HX  97
*CLEVELAND MUN CLOUDY    87  75  68 S12G20    29.89S HX  96
*WHARTON       MOSUNNY   85  72  64 S15G22    29.89F HX  91
*COLUMBUS      CLOUDY    87  74  66 S14G20    29.88S HX  95
*EAGLE LAKE    CLOUDY    85  77  75 S12       29.88S HX  96
$$

TXZ214>216-236>238-262100-
THE UPPER TEXAS COAST

CITY           SKY/WX    TMP DP  RH WIND       PRES   REMARKS
*ORANGE        PTSUNNY   84  74  71 S13G22    29.95F HX  92
PORT ARTHUR    CLOUDY    87  73  62 S14G23    29.93F HX  94
GALVESTON      CLOUDY    85  77  77 S15       29.93F HX  95
ANGLETON       CLOUDY    84  75  74 S15       29.91S HX  92
*BAY CITY      CLOUDY    84  76  75 S9        29.90S HX  93
PALACIOS       CLOUDY    82  75  79 SE18      29.89S
$$

TXZ229>234-239>247-262100-
TEXAS COASTAL BEND AND RIO GRANDE PLAINS

CITY           SKY/WX    TMP DP  RH WIND       PRES   REMARKS
VICTORIA       CLOUDY    87  75  67 S18G28    29.86F HX  96
*BEEVILLE      PTSUNNY   90  78  67 SE12G20   29.83F HX 104
ROCKPORT       PTSUNNY   88  76  67 SE15      29.85F HX  99
*PORT ARANSAS  SUNNY     85  76  76 SE17      29.84F HX  94
*PORT LAVACA   CLOUDY    83  77  81 S16G22    29.87S HX  93
*INGLESIDE     PTSUNNY   88  78  72 SE17G29   29.84S HX 101
CORPUS CHRISTI PTSUNNY   88  78  72 SE20      29.83S HX 101
CORPUS NAS     MOSUNNY   89  79  72 SE23G30   29.83S HX 104
*ROBSTOWN      PTSUNNY   91  77  64 SE15      29.82F HX 104
ALICE          PTSUNNY   94  77  57 E16G23    29.79F HX 108
KINGSVILLE NAS MOSUNNY   95  80  61 SE17G25   29.80F HX 114
COTULLA        MOSUNNY   97  69  40 VRB3      29.80F HX 103
*FAITH RANCH   MOSUNNY   91  73  55 CALM      29.82F HX 100
LAREDO         MOSUNNY   94  74  52 SE6       29.81F HX 104
$$

TXZ248>255-262100-
DEEP SOUTH TEXAS

CITY           SKY/WX    TMP DP  RH WIND       PRES   REMARKS
BROWNSVILLE    PTSUNNY   93  78  61 S25G31    29.82F HX 108
PORT ISABEL    PTSUNNY   92  77  61 SE23G29   29.81F HX 105
*SOUTH PADRE   NOT AVBL
HARLINGEN      MOSUNNY   96  77  54 S21G29    29.79F HX 111
*HEBBRONVILLE  SUNNY     96  69  40 S8        29.81F HX 102
MCALLEN        SUNNY    102  76  43 S15G26    29.78F HX 117
*WESLACO       CLOUDY    96  75  50 S22       29.79F HX 108
FALFURRIAS     MOSUNNY   99  72  41 S17       29.78F HX 107
EDINBURG       PTSUNNY   99  72  41 SE13G20   29.79F HX 108
*ZAPATA        SUNNY     95  72  47 CALM      29.78F HX 102
$$

TXZ213>215-236>238-242>244-246-247-251-254-255-262100-
CMAN STATIONS

STATION/POSITION TIME  TEMP    WIND        PRES    WAVE
                       AIR SEA DIR/SP/G            HT/PER
                 (UTC) (F)     (DEG/KT/KT) (MB)    (FT/S)
SABINE PASS      1924   81 81  170/ 13/ 17 1015.5
SEA RIM ST PARK  1900   80     170/ 11/ 12 1014.7
NORTH JETTY/GLS  1930      80  160/ 13/ 15 1013.0
EAGLE POINT      1918   81 78  200/ 10/ 17 1013.1
MORGANS POINT    1924   82 78  150/  8/ 12 1012.9
MISSION/ARANSAS  1900   81                 1011.0
PORT O`CONNOR    1930   80     130/ 13/ 16 1011.6
PORT ARANSAS     1900   80 80  120/ 11/ 12 1011.3
MALAQUITE BEACH  1930   81 81  120/ 20/ 23 1010.7
BAFFIN BAY       1930   83 84              1010.2
PORT ISABEL      1930   84 81  150/ 19/ 24 1010.1
$$




USA.gov is the U.S. government's official web portal to all federal, state and local government web resources and services.